Wind_Speed
11 10 9 7 6 5 4 4 3 3 3 4 5 6 6 6 6 6 5 4 4 5 4 3 2 2 1 1 1 1 1 1 2 3 3 4 4 4 3 4 4 4 4 4 4 4 5 5 5
12 12 10 9 7 6 5 5 4 4 4 4 5 6 7 7 7 7 6 5 5 5 4 3 2 1 1 2 1 0 1 2 3 4 4 4 4 4 4 5 5 4 4 5 5 5 5 5 5
13 12 12 10 9 7 6 5 5 5 4 4 5 6 7 7 7 8 7 6 6 5 4 3 2 2 2 1 0 1 2 3 3 4 5 5 5 5 5 6 5 5 4 5 5 5 5 5 5
13 13 12 11 10 8 7 6 5 5 4 4 5 6 7 7 7 7 7 7 7 6 4 3 3 3 2 0 0 1 2 3 4 4 5 5 6 6 6 6 6 5 5 5 5 5 6 6 6
14 14 13 12 11 9 8 7 6 6 6 5 6 6 7 7 7 7 7 7 7 6 5 4 3 2 1 1 1 2 2 3 4 4 5 6 6 7 7 6 6 6 6 6 6 6 6 7 7
15 14 14 13 12 10 10 8 7 7 6 5 6 7 7 7 7 7 7 7 7 6 5 4 4 3 2 1 1 2 2 3 4 5 6 6 7 7 7 7 7 7 7 7 6 6 7 7 7
15 14 14 13 11 11 10 9 8 7 6 5 6 7 7 7 8 8 8 7 7 7 6 5 4 4 2 2 2 2 2 3 4 5 6 7 8 8 8 8 7 7 7 7 7 7 8 7 7
15 14 14 13 12 12 11 9 8 8 7 6 7 7 8 8 9 8 7 7 7 7 6 6 5 4 3 2 2 1 2 3 4 5 6 7 8 8 9 8 8 8 8 8 7 7 7 7 7
14 14 14 13 12 12 11 10 9 9 8 8 8 8 8 9 9 8 7 7 7 7 7 6 4 4 3 2 2 2 3 4 5 6 7 8 8 9 9 9 9 8 8 8 8 7 7 7 8
15 15 14 14 13 12 12 11 10 9 9 9 9 9 9 9 9 8 8 7 7 8 7 5 4 4 3 2 3 3 3 4 5 6 7 8 9 9 9 9 9 9 9 9 8 8 8 8 8
15 15 15 15 14 13 12 11 11 10 10 10 10 9 9 9 9 8 8 8 8 8 7 6 5 4 3 2 3 3 4 5 6 7 8 8 9 10 10 10 10 9 9 9 9 9 8 8 8
15 15 15 15 14 13 12 12 12 11 10 10 10 9 10 9 9 8 8 7 7 7 7 6 5 4 4 3 3 3 4 5 6 7 7 8 9 10 10 10 10 10 10 10 10 9 9 8 9
15 15 14 13 13 13 12 12 12 12 11 11 10 10 10 11 10 8 8 8 8 7 6 6 5 4 4 3 3 3 4 6 7 7 7 8 9 10 10 10 10 10 10 10 10 9 9 8 9
14 14 14 14 13 13 12 12 12 12 12 12 11 11 10 10 9 9 8 8 8 7 6 5 5 4 3 3 3 3 4 5 6 6 7 8 9 10 10 11 11 11 11 11 10 9 9 8 9
13 14 14 13 13 13 13 12 13 12 13 12 12 11 11 10 9 9 8 8 7 7 6 5 4 3 3 2 2 2 4 5 6 6 7 9 10 10 11 11 11 11 11 11 10 9 8 8 8
12 13 14 13 13 14 13 12 13 12 13 13 12 12 11 10 9 8 7 8 7 6 6 5 4 3 2 2 2 3 3 4 5 6 8 9 10 10 11 11 11 11 11 11 10 9 8 7 7
11 12 13 14 13 14 13 12 12 12 13 13 13 12 12 10 9 9 8 8 7 6 5 5 4 4 2 2 2 2 3 4 5 7 8 9 10 10 11 11 11 11 11 10 10 9 7 7 6
10 12 13 13 14 13 13 12 12 13 13 13 13 12 12 10 9 10 9 8 7 6 5 5 4 4 3 2 2 2 3 4 6 7 8 9 9 10 10 11 11 11 11 10 9 9 8 7 6
10 11 12 13 13 13 13 12 12 13 13 13 13 12 12 11 10 10 9 9 8 7 5 5 5 4 3 2 2 2 3 4 5 7 8 8 9 10 10 10 11 11 11 10 10 9 8 7 6
9 10 12 12 13 13 12 11 12 13 13 12 13 13 12 12 11 10 10 9 8 6 5 5 4 4 3 3 2 2 3 4 5 6 7 8 9 10 10 10 11 11 10 10 10 9 8 7 6
9 10 11 12 12 12 12 11 11 12 12 13 13 13 12 12 11 10 10 9 8 7 5 5 4 4 4 3 2 2 3 4 5 6 7 8 9 9 10 10 10 11 11 10 10 10 9 8 7
9 9 10 10 11 11 11 11 11 12 13 13 13 12 12 11 11 10 9 9 8 7 6 5 4 4 4 3 2 2 3 4 5 6 7 8 8 9 10 10 10 10 11 10 10 10 9 8 7
9 8 8 9 9 9 9 10 11 13 13 13 12 12 12 11 10 9 9 9 8 7 6 5 5 4 4 3 3 3 3 4 5 6 7 8 8 9 9 10 10 11 11 10 10 10 9 8 7
9 8 8 8 8 7 9 10 11 12 13 13 12 12 12 11 10 9 9 8 7 7 6 5 5 4 4 4 3 3 4 5 6 6 7 7 8 8 9 9 10 10 11 11 10 10 9 8 8
10 9 8 7 7 7 9 9 10 11 12 12 11 11 12 11 10 9 9 7 7 7 6 5 5 5 4 4 4 4 5 5 6 6 7 7 7 8 8 9 9 10 10 11 10 10 9 9 8
10 9 9 8 8 7 8 8 9 10 11 10 10 10 11 10 10 9 8 7 7 6 6 6 5 5 5 5 5 5 5 5 5 5 6 6 7 8 8 9 9 9 10 10 10 10 9 9 8
11 10 9 8 8 8 8 8 9 10 10 9 9 9 10 10 10 9 8 8 7 7 6 6 6 6 5 5 5 5 5 5 5 6 6 7 7 7 8 9 9 9 10 10 10 10 9 9 9
10 10 9 8 7 7 8 8 9 10 9 10 10 10 10 10 10 9 8 8 8 7 7 6 6 6 6 6 6 6 5 5 6 6 7 7 8 8 9 10 10 10 10 10 10 10 9 9 9
10 10 10 9 7 7 7 8 10 10 9 9 10 10 10 9 9 9 9 9 8 8 7 7 7 6 7 7 6 6 6 6 6 7 7 8 9 10 10 11 11 11 11 11 11 11 11 10 10
10 10 10 9 8 7 8 9 10 10 9 9 10 10 10 10 9 9 9 9 9 9 8 8 7 7 7 7 7 7 7 7 7 8 9 9 10 11 11 12 12 12 12 12 12 12 12 12 12
Wind_Direction
241 240 239 237 238 244 257 259 249 222 210 206 199 195 191 190 190 194 191 180 174 169 172 164 158 164 143 116 105 112 45 26 359 351 348 342 336 325 322 321 319 315 310 302 294 281 276 275 263
238 237 237 233 234 240 254 258 246 224 216 206 206 203 195 196 198 198 191 179 170 169 169 164 165 165 155 139 126 67 26 9 351 344 344 346 342 333 324 323 322 315 309 302 292 281 276 273 267
235 234 232 231 232 234 243 245 240 226 207 201 202 199 193 195 199 200 193 186 177 173 170 177 172 167 170 163 123 5 1 347 342 341 346 350 345 339 331 328 324 315 310 305 291 279 277 274 265
232 231 231 230 229 231 235 231 223 211 207 205 200 196 192 191 197 196 192 194 193 185 177 173 163 163 168 194 320 338 343 341 338 342 348 346 344 340 336 332 323 312 307 302 292 280 277 276 266
229 228 229 229 228 228 228 224 219 217 215 209 207 200 193 193 198 195 193 196 199 194 185 178 179 184 205 259 297 316 330 337 338 336 340 341 340 340 335 333 323 313 310 304 296 280 278 276 270
226 224 227 228 227 224 223 222 220 223 224 216 213 202 204 201 200 194 193 195 199 197 197 193 193 208 227 255 289 319 330 333 338 335 339 340 339 337 335 331 328 320 316 310 300 288 282 279 276
222 220 222 223 222 220 221 221 217 217 217 215 212 205 206 199 198 196 194 196 199 200 200 201 204 216 219 242 275 316 332 334 338 338 338 337 336 335 330 329 328 322 315 310 303 292 286 281 276
219 218 220 220 219 218 217 218 215 215 213 214 211 204 203 199 200 196 193 197 196 197 200 207 216 223 229 240 261 293 322 331 333 338 339 335 336 334 330 330 328 323 320 314 306 295 287 281 276
216 216 217 217 217 215 215 217 219 217 216 213 209 202 202 197 199 198 198 199 201 203 205 209 220 229 236 261 274 303 315 328 333 337 338 336 336 334 334 332 328 322 318 314 308 299 291 282 278
214 215 216 217 217 214 215 218 220 216 218 215 212 203 199 197 201 204 205 204 207 206 211 215 223 231 249 265 285 304 314 322 330 332 334 336 335 334 332 331 329 327 323 318 311 302 293 285 279
211 212 216 217 217 215 216 219 219 217 214 211 209 204 199 197 198 201 204 206 209 211 213 220 226 236 237 253 279 299 312 321 328 331 332 333 334 334 333 332 331 329 326 321 313 304 293 286 279
207 209 212 215 216 215 217 217 216 212 209 206 205 205 205 199 195 199 204 206 209 213 214 221 227 228 237 253 279 299 313 323 328 331 333 336 337 337 335 334 332 329 325 321 314 305 293 283 277
206 207 208 209 210 211 214 211 211 210 207 208 208 205 202 201 204 206 204 209 209 211 216 222 222 226 243 257 280 295 313 322 330 334 338 341 342 340 338 338 334 331 327 324 317 308 298 285 277
206 206 206 208 209 207 206 205 209 206 205 208 208 204 199 204 207 204 201 205 206 207 211 212 218 228 246 259 280 302 321 328 334 340 344 346 346 345 343 340 337 334 331 327 321 313 305 292 281
205 204 203 203 205 202 201 202 202 202 203 203 203 200 197 201 203 203 202 200 198 199 203 207 215 226 245 265 293 323 334 337 339 343 345 346 346 347 344 342 341 338 336 332 327 320 312 298 284
203 203 204 201 198 198 198 201 200 200 200 200 201 197 197 197 198 202 200 199 197 199 203 208 216 227 244 265 303 329 339 343 344 345 345 345 345 345 344 345 345 343 340 338 334 327 317 304 289
203 204 201 199 197 196 197 204 203 199 197 198 198 197 199 202 202 198 197 197 199 203 206 210 215 221 233 260 296 327 339 345 349 347 344 342 343 344 345 346 346 346 345 343 340 334 327 315 301
197 199 201 196 196 197 199 201 200 197 195 197 198 199 201 204 204 199 197 198 203 208 217 223 221 220 230 256 289 323 341 346 348 349 347 345 345 347 349 349 348 349 349 348 347 343 335 326 314
193 197 202 199 197 197 199 200 200 198 197 198 199 199 201 204 200 198 201 206 211 215 219 223 223 225 233 249 276 316 340 348 349 350 352 354 354 353 352 352 352 353 353 353 353 350 345 336 326
193 197 200 199 196 195 195 198 199 198 200 201 199 199 202 205 204 202 201 206 209 211 215 218 223 227 228 239 271 313 331 344 347 348 350 354 356 357 356 354 356 358 358 359 357 354 351 346 339
190 192 195 197 195 194 197 198 200 200 203 201 196 197 201 205 204 204 206 208 213 213 214 216 223 234 236 244 265 302 325 334 340 344 346 350 354 357 359 1 1 1 2 0 359 359 356 350 347
187 190 190 193 197 198 197 198 203 204 205 201 199 198 197 200 201 204 207 208 207 208 209 213 227 235 238 245 262 290 317 329 336 340 346 349 351 354 357 0 3 3 3 3 3 2 359 356 353
183 184 186 192 196 202 203 204 206 206 207 204 202 202 202 200 201 206 206 199 199 203 210 219 231 232 234 246 263 284 305 323 332 336 340 344 347 350 354 358 2 4 4 4 3 2 1 359 357
180 181 182 187 194 199 199 200 205 207 204 200 201 204 205 205 203 205 201 202 204 206 213 223 230 235 242 254 266 283 299 315 323 327 333 340 345 349 352 355 358 1 3 4 2 2 1 1 359
181 182 181 186 189 199 196 198 201 201 198 199 202 203 204 204 204 203 202 205 207 212 218 223 232 238 250 261 268 282 297 311 319 324 330 337 343 347 349 352 355 358 1 3 3 3 2 0 358
186 188 186 194 196 194 194 197 195 195 195 195 199 201 200 199 200 202 201 207 212 218 224 228 235 244 252 260 266 280 296 307 316 322 328 334 338 342 343 346 350 354 356 359 359 358 358 357 355
192 191 191 196 196 198 197 193 191 192 196 198 201 203 200 199 202 204 206 210 217 226 231 237 242 249 256 262 266 276 292 301 311 318 322 329 334 337 340 342 344 348 350 351 352 353 351 350 349
191 191 190 187 189 199 197 195 194 195 199 204 205 203 202 201 205 209 214 218 223 228 232 241 249 252 256 263 269 278 287 296 304 310 316 324 329 331 333 334 336 338 340 342 342 342 344 343 340
193 191 190 194 197 199 199 199 200 201 204 205 205 205 204 205 209 215 219 224 228 232 232 240 249 260 262 264 270 278 283 293 301 304 309 315 319 323 325 326 327 329 330 330 331 331 332 332 332
192 192 194 200 204 202 203 206 207 207 206 205 206 207 208 211 216 220 223 228 231 233 238 247 253 260 262 268 276 281 282 287 294 299 302 308 312 314 317 319 319 320 321 322 322 322 321 322 321
Height
5877 5879 5880 5882 5884 5884 5883 5883 5883 5883 5883 5883 5884 5885 5886 5887 5889 5891 5890 5888 5889 5889 5889 5889 5890 5890 5890 5890 5890 5890 5889 5889 5889 5888 5887 5886 5886 5885 5884 5884 5883 5882 5882 5881 5881 5881 5881 5880 5880
5875 5877 5879 5881 5881 5882 5882 5882 5882 5882 5882 5882 5883 5884 5884 5885 5886 5887 5887 5888 5888 5889 5889 5889 5889 5890 5890 5890 5890 5890 5890 5889 5889 5888 5887 5886 5885 5884 5884 5883 5882 5881 5881 5880 5880 5880 5879 5879 5879
5873 5875 5878 5879 5879 5880 5881 5880 5880 5880 5881 5881 5882 5883 5884 5884 5885 5886 5887 5887 5888 5888 5889 5889 5889 5889 5890 5890 5890 5890 5890 5889 5888 5887 5886 5885 5884 5883 5883 5882 5881 5880 5879 5879 5878 5878 5878 5878 5878
5871 5873 5875 5877 5877 5878 5879 5879 5879 5879 5880 5880 5881 5882 5883 5883 5884 5885 5886 5887 5887 5888 5888 5889 5889 5889 5890 5890 5890 5890 5889 5889 5888 5887 5886 5885 5884 5883 5882 5881 5880 5879 5878 5878 5877 5877 5876 5876 5876
5868 5871 5873 5874 5875 5876 5877 5877 5878 5878 5879 5880 5880 5881 5882 5883 5883 5884 5885 5886 5887 5887 5888 5888 5889 5889 5889 5889 5890 5890 5889 5888 5888 5887 5886 5884 5883 5882 5881 5880 5879 5878 5877 5876 5875 5875 5875 5875 5874
5866 5868 5870 5871 5873 5874 5875 5876 5877 5877 5878 5879 5880 5880 5881 5882 5882 5883 5884 5885 5886 5887 5888 5888 5888 5889 5889 5889 5889 5889 5888 5888 5887 5886 5885 5884 5882 5881 5880 5878 5877 5877 5876 5875 5874 5873 5873 5873 5873
5864 5866 5867 5869 5871 5872 5873 5874 5875 5876 5877 5878 5878 5879 5880 5881 5882 5882 5883 5884 5885 5886 5887 5888 5888 5888 5888 5888 5888 5888 5888 5887 5886 5885 5884 5883 5882 5880 5879 5877 5876 5875 5874 5873 5872 5872 5871 5871 5871
5860 5864 5865 5867 5868 5870 5871 5872 5874 5875 5875 5876 5877 5878 5879 5880 5880 5881 5882 5883 5885 5886 5886 5887 5887 5887 5888 5888 5887 5887 5887 5887 5886 5885 5884 5883 5881 5879 5878 5876 5875 5874 5873 5872 5871 5870 5870 5869 5869
5858 5862 5862 5864 5866 5868 5869 5871 5872 5873 5874 5875 5876 5877 5878 5879 5879 5881 5882 5883 5884 5885 5886 5886 5887 5887 5887 5887 5887 5887 5887 5886 5885 5884 5883 5882 5880 5879 5877 5875 5874 5873 5871 5870 5869 5869 5868 5867 5867
5855 5858 5860 5862 5864 5865 5867 5868 5870 5871 5872 5873 5874 5875 5876 5877 5879 5880 5881 5882 5883 5884 5885 5886 5886 5886 5886 5886 5886 5886 5886 5885 5884 5883 5882 5881 5879 5878 5876 5874 5873 5871 5870 5869 5868 5867 5866 5865 5864
5852 5855 5857 5859 5861 5863 5865 5866 5868 5869 5871 5872 5873 5874 5875 5876 5877 5879 5880 5881 5883 5884 5884 5885 5886 5886 5886 5886 5886 5886 5885 5884 5883 5882 5881 5880 5878 5877 5875 5873 5872 5870 5868 5867 5866 5864 5863 5862 5862
5850 5852 5854 5857 5859 5861 5863 5865 5866 5868 5869 5871 5872 5873 5874 5875 5877 5878 5879 5880 5882 5883 5884 5884 5885 5885 5885 5885 5885 5885 5884 5883 5882 5881 5880 5879 5877 5876 5874 5872 5870 5868 5867 5865 5863 5862 5861 5860 5860
5848 5850 5852 5854 5857 5859 5861 5863 5864 5866 5867 5869 5871 5872 5873 5875 5876 5877 5879 5880 5881 5882 5883 5883 5884 5884 5885 5885 5884 5884 5884 5883 5882 5880 5879 5878 5876 5875 5873 5871 5869 5867 5865 5863 5861 5860 5858 5858 5857
5846 5848 5851 5853 5855 5857 5859 5861 5863 5864 5866 5868 5870 5871 5872 5874 5875 5876 5878 5879 5880 5881 5882 5883 5884 5884 5884 5884 5884 5883 5883 5882 5881 5880 5878 5877 5875 5873 5872 5870 5868 5865 5863 5861 5859 5858 5856 5855 5855
5844 5847 5849 5851 5853 5855 5858 5860 5861 5863 5865 5866 5868 5870 5871 5873 5874 5876 5877 5878 5879 5881 5882 5882 5883 5883 5883 5883 5883 5883 5882 5881 5880 5879 5878 5876 5874 5873 5871 5869 5866 5864 5862 5859 5857 5856 5854 5853 5853
5843 5846 5848 5850 5852 5854 5858 5859 5860 5861 5863 5865 5867 5869 5871 5872 5874 5875 5876 5877 5879 5880 5881 5882 5882 5883 5883 5883 5882 5882 5881 5881 5880 5878 5877 5875 5874 5872 5870 5868 5865 5863 5860 5858 5856 5854 5853 5852 5851
5842 5845 5846 5849 5851 5853 5856 5857 5859 5860 5862 5864 5866 5868 5870 5872 5873 5874 5876 5877 5878 5880 5881 5881 5882 5882 5882 5882 5882 5881 5881 5880 5879 5878 5876 5875 5873 5871 5869 5867 5864 5862 5859 5857 5855 5853 5851 5850 5849
5842 5843 5845 5848 5850 5852 5854 5856 5858 5859 5861 5863 5865 5867 5869 5871 5872 5874 5875 5877 5878 5879 5880 5881 5881 5882 5882 5882 5882 5881 5880 5880 5878 5877 5876 5874 5872 5870 5868 5866 5864 5861 5859 5856 5854 5852 5850 5849 5848
5841 5843 5844 5847 5849 5851 5853 5855 5857 5858 5860 5862 5864 5866 5868 5870 5872 5873 5875 5876 5878 5879 5879 5880 5880 5881 5881 5881 5881 5881 5880 5879 5878 5877 5875 5874 5872 5870 5868 5865 5863 5861 5858 5856 5853 5851 5850 5848 5847
5840 5842 5844 5846 5848 5850 5852 5854 5855 5857 5859 5861 5863 5865 5867 5869 5871 5872 5874 5875 5877 5878 5878 5879 5880 5880 5880 5880 5880 5880 5879 5879 5878 5876 5875 5873 5871 5869 5867 5865 5863 5860 5858 5855 5853 5851 5849 5847 5846
5840 5841 5843 5845 5847 5849 5851 5853 5855 5856 5858 5860 5862 5864 5866 5868 5870 5871 5873 5875 5876 5877 5878 5878 5879 5879 5880 5880 5880 5879 5879 5878 5877 5876 5874 5873 5871 5869 5867 5865 5862 5860 5858 5855 5853 5851 5849 5847 5846
5839 5841 5843 5845 5847 5848 5851 5853 5854 5855 5857 5859 5861 5863 5865 5867 5869 5870 5872 5874 5875 5876 5877 5877 5878 5878 5879 5879 5879 5878 5878 5877 5876 5875 5873 5872 5870 5869 5867 5864 5862 5860 5857 5855 5853 5851 5849 5847 5845
5839 5841 5843 5844 5846 5848 5850 5852 5854 5854 5856 5858 5860 5862 5864 5866 5868 5869 5871 5873 5874 5875 5876 5877 5877 5877 5878 5878 5878 5877 5877 5876 5875 5874 5873 5871 5870 5868 5866 5864 5862 5860 5857 5855 5853 5850 5849 5847 5845
5839 5841 5843 5844 5846 5848 5849 5851 5853 5853 5855 5857 5859 5861 5863 5865 5867 5868 5870 5872 5873 5874 5875 5875 5876 5876 5877 5877 5877 5876 5876 5875 5874 5873 5872 5870 5869 5867 5865 5863 5861 5859 5857 5855 5853 5850 5848 5847 5845
5839 5842 5844 5845 5846 5848 5848 5850 5852 5852 5854 5856 5858 5860 5862 5864 5866 5867 5869 5871 5872 5873 5874 5874 5875 5875 5875 5875 5875 5875 5874 5874 5873 5872 5871 5869 5868 5866 5865 5863 5861 5859 5857 5855 5852 5850 5848 5847 5845
5839 5841 5844 5846 5847 5847 5848 5849 5851 5852 5854 5855 5857 5859 5861 5863 5865 5866 5868 5869 5870 5872 5873 5873 5874 5874 5874 5874 5874 5874 5873 5872 5872 5871 5869 5868 5867 5865 5864 5862 5860 5858 5856 5854 5852 5850 5848 5847 5845
5838 5840 5843 5844 5846 5847 5848 5849 5850 5851 5853 5855 5857 5858 5860 5861 5863 5865 5867 5868 5869 5870 5871 5872 5873 5873 5873 5873 5873 5872 5872 5871 5870 5869 5868 5867 5866 5864 5863 5861 5859 5858 5856 5854 5852 5850 5848 5846 5844
5838 5839 5841 5843 5845 5846 5847 5848 5850 5851 5852 5854 5856 5857 5859 5861 5862 5864 5866 5867 5868 5869 5870 5871 5871 5871 5871 5871 5871 5870 5870 5869 5869 5868 5867 5866 5864 5863 5862 5860 5858 5857 5855 5853 5851 5849 5847 5845 5844
5837 5839 5840 5842 5844 5846 5847 5850 5849 5850 5851 5853 5855 5856 5858 5860 5861 5863 5864 5865 5866 5867 5868 5869 5869 5869 5869 5869 5869 5868 5868 5867 5867 5866 5865 5864 5863 5862 5860 5858 5857 5855 5853 5851 5850 5848 5846 5844 5842
5835 5837 5839 5842 5843 5844 5845 5850 5847 5849 5850 5852 5853 5855 5857 5858 5860 5861 5862 5864 5865 5865 5866 5867 5867 5867 5867 5867 5867 5866 5866 5865 5865 5864 5863 5862 5861 5860 5858 5856 5855 5853 5851 5849 5848 5846 5844 5842 5841